Location: Maccacari
(45.1333°N, 11.1333°E)
Time: 01:24:48
(UTC+00:00)

A-11 Canister half - Pass Details

Date: 23 January 2021
Orbit: 1525 x 1684 km, 47.3° (Epoch: 07 March)

Event Time Altitude Azimuth Distance (km) Brightness Sun altitude
Rises 12:44:37 0° 205° (SSW) 4,660 13.0 23.2°
Reaches altitude 10° 12:47:57 10° 197° (SSW) 3,684 13.1 23.0°
Maximum altitude 12:56:03 35° 135° (SE) 2,291 10.5 22.5°
Drops below altitude 10° 13:04:17 10° 75° (ENE) 3,765 10.8 21.9°
Sets 13:07:43 0° 67° (ENE) 4,775 11.2 21.6°
